User: anonymous   Login
Location: Unspecified
(0.0000°N, 0.0000°E)
Time: 13:49:33
(UTC+00:00)
Language:

Cosmos 1574 - Orbit

View from above orbital plane
View from above orbital plane
View from above satellite
View from above satellite

Ground track
Ground track

The orbit data is extracted from the following two-line orbital elements,

1 15055U 84062A   17114.88101449 +.00000037 +00000-0 +23139-4 0  9997
2 15055 082.9608 024.9298 0027604 005.5546 038.8000 13.74286312646720
Epoch (UTC): 24 April 2017 21:08:39
Eccentricity: 0.0027604
inclination: 82.9608°
perigee height: 964 km
apogee height: 1004 km
right ascension of ascending node: 24.9298°
argument of perigee: 5.5546°
revolutions per day: 13.74286312
mean anomaly at epoch: 38.8000°
orbit number at epoch: 64672

The dashed part of the orbit path shows where the satellite is in the earth's shadow,  

DLR